Other Public Products
Issued by NWS Grand Forks, ND

Home | Current Version | Previous Version | Text Only | Print | Product List | Glossary On
Versions: 1 2 3 4 5 6 7 8 9 10 11 12 13 14 15 16 17 18 19 20 21 22 23 24 25 26 27 28 29 30 31 32 33 34 35 36 37 38 39 40 41 42 43 44 45 46 47 48 49 50
000
FPUS83 KFGF 210610
OPUFGF
PRAIRIE TO PINES WEATHER ROUNDUP
NATIONAL WEATHER SERVICE EASTERN NORTH DAKOTA/GRAND FORKS ND
100 AM CDT MON OCT 21 2019

 **SATELLITE DATA USED TO AUGMENT SKY COVER AT AUTOMATED STATIONS**
 *****  WEATHER ACROSS EASTERN NORTH DAKOTA  *****

CITY           SKY/WX    TMP DP  RH WIND       PRES   REMARKS
GRAND FORKS    LGT RAIN  46  42  86 N7        29.81F
6HR MIN TEMP:  44; 6HR MAX TEMP:  47; 6HR PCP:  0.04;

GRND FORKS AFB LGT RAIN  46  45  98 N9        29.81F
GRND FORKS NWS   N/A     46  44  94 VRB5      29.77F
BUXTON         NOT AVBL
DEVILS LAKE    LGT RAIN  43  41  93 N5        29.84F
6HR MIN TEMP:  43; 6HR MAX TEMP:  47; 6HR PCP:  0.04;

FARGO          LGT RAIN  50  42  74 E8        29.75F
6HR MIN TEMP:  47; 6HR MAX TEMP:  52; 6HR PCP:  0.02;

WAHPETON ARPT    N/A     50  39  66 E9        29.69F
$$

 *****  WEATHER ACROSS CENTRAL AND WESTERN NORTH DAKOTA  *****

CITY           SKY/WX    TMP DP  RH WIND       PRES   REMARKS
JAMESTOWN      LGT RAIN  44  43  96 NE16G28   29.72F
6HR MIN TEMP:  44; 6HR MAX TEMP:  44; 6HR PCP:  0.25;

BISMARCK       RAIN      41  38  89 N20G25    29.78F
6HR MIN TEMP:  41; 6HR MAX TEMP:  42; 6HR PCP:  0.76;

MINOT          CLOUDY    42  32  67 N10       29.87S
6HR MIN TEMP:  42; 6HR MAX TEMP:  48;

MINOT AFB      CLOUDY    42  31  65 N12       29.86S
6HR MIN TEMP:  41; 6HR MAX TEMP:  47;

GARRISON         N/A     40  37  89 N5        29.85R
6HR MIN TEMP:  40; 6HR MAX TEMP:  46;

WILLISTON      NOT AVBL
DICKINSON      CLOUDY    42  27  55 N13       29.82S
6HR MIN TEMP:  42; 6HR MAX TEMP:  44;

HETTINGER      CLOUDY    37  36  96 N10G21    29.81S
6HR MIN TEMP:  37; 6HR MAX TEMP:  39; 6HR PCP:  0.01;

$$

 *****  OTHER OBSERVATIONS NORTHEAST NORTH DAKOTA  *****

CITY           SKY/WX    TMP DP  RH WIND       PRES   REMARKS
WALHALLA       DRIZZLE   45  45 100 W6        29.85F
LANGDON        DRIZZLE   45  39  81 N7G14     29.86S
CAVALIER       MOCLDY    45  41  87 NW3       29.84S
GRAFTON        DRIZZLE   46  45  93 CALM      29.85S
CANDO          CLOUDY    45  37  76 N12       29.87S
FORT TOTTEN      N/A     44  43  97 NE2       29.95S
ROLLA          CLOUDY    43  36  75 N6        29.88S
RUGBY          CLOUDY    43  41  93 N8        29.86S
 ***** THE ABOVE OBSERVATIONS ARE NON NWS ARE NOT QUALITY
        CONTROLLED AND MAY MIS-REPORT RAIN FOR SNOW...
$$

 *****  OTHER OBSERVATIONS SOUTHEAST NORTH DAKOTA *****

CITY           SKY/WX    TMP DP  RH WIND       PRES   REMARKS
COOPERSTOWN    DRIZZLE   45  45 100 NE13      29.79S
VALLEY CITY    LGT RAIN  45  45 100 NE16G24   29.74F
OAKES          CLOUDY    46  46 100 NE15      29.63F FOG
GWINNER        CLOUDY    48  46  93 E13G21    29.66F
BUFFALO        NOT AVBL
WYNDMERE       NOT AVBL
 ***** THE ABOVE OBSERVATIONS ARE NON NWS ARE NOT QUALITY
       CONTROLLED AND MAY MIS-REPORT RAIN FOR SNOW...
$$

  *****  WEATHER ACROSS NORTHERN MINNESOTA  *****

CITY           SKY/WX    TMP DP  RH WIND       PRES   REMARKS
FLAG ISLAND      N/A     46  43  87 CALM      29.85R
WARROAD        CLOUDY    48  43  81 CALM      29.86S HAZE
ROSEAU         NOT AVBL
HALLOCK        FAIR      45  43  93 N7        29.84F
THF RVR FALLS  LGT RAIN  48  42  80 NE9       29.83S
6HR MIN TEMP:  48; 6HR MAX TEMP:  55; 6HR PCP: TRACE;

HALSTAD        NOT AVBL
FOSSTON        LGT RAIN  46  37  71 E6        29.83R
BAUDETTE       CLOUDY    51  35  54 W3        29.85S
6HR MIN TEMP:  44; 6HR MAX TEMP:  51;

WASKISH        NOT AVBL
CROOKSTON      LGT RAIN  48  45  87 E6        29.82R
$$
  *****  WEATHER ACROSS CENTRAL AND WEST MINNESOTA  *****

CITY           SKY/WX    TMP DP  RH WIND       PRES   REMARKS
BEMIDJI        CLOUDY    49  36  60 E6        29.81R
PARK RAPIDS    CLOUDY    51  36  56 E6        29.78S
6HR MIN TEMP:  51; 6HR MAX TEMP:  55; 6HR PCP:  0.01;

WADENA         LGT RAIN  48  37  66 N6        29.73F
DETROIT LAKES  LGT RAIN  48  41  76 SE6       29.79F
MOORHEAD       LGT RAIN  54  39  58 E14G22    29.76F
FERGUS FALLS   CLOUDY    50  41  71 E6        29.69F
ELBOW LAKE     RAIN      51  40  66 SE28G37   29.69F
6HR MIN TEMP:  50; 6HR MAX TEMP:  56; 6HR PCP:  0.01;

MORRIS MN      CLOUDY    52  37  58 E13G21    29.58F
STAPLES        CLOUDY    52  34  50 CALM      29.75F
WHEATON        NOT AVBL
$$
  *****  WEATHER ELSEWHERE ACROSS MINNESOTA  *****

CITY           SKY/WX    TMP DP  RH WIND       PRES   REMARKS
DULUTH         FAIR      50  37  61 E10       29.86F
6HR MIN TEMP:  50; 6HR MAX TEMP:  54;

INTRNTL FALLS  CLOUDY    50  37  61 CALM      29.87R
6HR MIN TEMP:  42; 6HR MAX TEMP:  53; 6HR PCP: TRACE;

ELY            FAIR      43  36  75 CALM      29.90S
CLOQUET        FAIR      48  37  66 E8        29.84F
BRAINERD       MOCLDY    57  37  47 VRB6      29.77F
6HR MIN TEMP:  57; 6HR MAX TEMP:  60;

HIBBING        CLOUDY    47  36  65 E6        29.87S
6HR MIN TEMP:  43; 6HR MAX TEMP:  47;

ALEXANDRIA     CLOUDY    53  39  59 E15G21    29.70F
6HR MIN TEMP:  52; 6HR MAX TEMP:  55; 6HR PCP: TRACE;

SAINT CLOUD    CLOUDY    54  40  59 E7        29.72F
6HR MIN TEMP:  54; 6HR MAX TEMP:  58;

MINNEAPOLIS    CLOUDY    56  42  59 E15       29.73F
6HR MIN TEMP:  55; 6HR MAX TEMP:  61;

$$

  *****  WEATHER ACROSS SOUTH DAKOTA  *****

CITY           SKY/WX    TMP DP  RH WIND       PRES   REMARKS
SIOUX FALLS    MOCLDY    50  44  80 SE15G24   29.49F
6HR MIN TEMP:  50; 6HR MAX TEMP:  59; 6HR PCP:  0.04;

BROOKINGS      LGT RAIN  47  46  97 S9        29.54F
WATERTOWN      RAIN      48  43  82 SE10G20   29.54F
6HR MIN TEMP:  48; 6HR MAX TEMP:  55; 6HR PCP:  0.12;

HURON          MOCLDY    48  44  86 SE12      29.48F
6HR MIN TEMP:  47; 6HR MAX TEMP:  56; 6HR PCP:  0.16;

SISSETON         N/A     48  44  86 E8        29.60F
ABERDEEN       LGT RAIN  49  45  86 E13       29.54F
6HR MIN TEMP:  48; 6HR MAX TEMP:  52; 6HR PCP:  0.33;

MITCHELL       FAIR      46  43  89 E9        29.46F
PIERRE         RAIN      45  44  97 E5        29.45F FOG
6HR MIN TEMP:  45; 6HR MAX TEMP:  51; 6HR PCP:  0.19;

MOBRIDGE       RAIN      45  42  89 N24G40    29.56F FOG
RAPID CITY     CLOUDY    37  37 100 NW26G40   29.75S
6HR MIN TEMP:  33; 6HR MAX TEMP:  37; 6HR PCP:  0.20;

$$

  *****  SOME WEATHER IN NEARBY STATES *****

CITY           SKY/WX    TMP DP  RH WIND       PRES   REMARKS
GLASGOW MT     FAIR      35  21  56 E12       29.89R
6HR MIN TEMP:  33; 6HR MAX TEMP:  49;

GREAT FALLS MT FAIR      31  21  66 SW10      29.89R WCI  22
6HR MIN TEMP:  31; 6HR MAX TEMP:  42;

CHEYENNE WY    FAIR      32  21  64 NW16G24   29.90R WCI  21
6HR MIN TEMP:  32; 6HR MAX TEMP:  36; 6HR PCP: TRACE;

SCOTTSBLUFF NE FAIR      38  33  82 NW15G25   29.83S
6HR MIN TEMP:  37; 6HR MAX TEMP:  41; 6HR PCP: TRACE;

OMAHA NE       CLOUDY    53  51  93 SE9       29.50F
6HR MIN TEMP:  50; 6HR MAX TEMP:  59; 6HR PCP:  0.01;

DES MOINES IA  TSTM      52  49  89 N7        29.60R FOG
6HR MIN TEMP:  52; 6HR MAX TEMP:  59; 6HR PCP:  0.62;

DAVENPORT IA   FAIR      54  49  83 E13       29.75F
6HR MIN TEMP:  54; 6HR MAX TEMP:  58;

CHICAGO IL     FOG       50  50 100 E9        29.85F VSB 1/2
6HR MIN TEMP:  49; 6HR MAX TEMP:  50;

EAU CLAIRE WI  FAIR      53  40  61 E10       29.80F
6HR MIN TEMP:  49; 6HR MAX TEMP:  58;

LA CROSSE WI   FAIR      53  43  68 E7        29.77F
6HR MIN TEMP:  50; 6HR MAX TEMP:  58;

$$

  *****  SOME NATIONAL WEATHER *****

CITY           SKY/WX    TMP DP  RH WIND       PRES   REMARKS
LA GUARDIA NY  CLOUDY    54  49  83 N12       29.98R
6HR MIN TEMP:  53; 6HR MAX TEMP:  55; 6HR PCP:  0.02;

RALEIGH NC     MOCLDY    57  55  93 NE3       29.99R


USA.gov is the U.S. government's official web portal to all federal, state and local government web resources and services.
  • National Weather Service
  • El Paso, TX Weather Forecast Office
  • 7955 Airport Rd
  • Santa Teresa, NM 88008
  • (575) 589-4088
  • Page Author: EPZ Webmaster
  • Web Master's E-mail: sr-epz.webmaster@noaa.gov
  • Page last modified: Apr 16th, 2019 21:10 UTC